Showing default

KINEIS-4B, 63304

Orbit data source: Space-Track

KINEIS-4B, 63304 is a French payload satellite in SSO that was launched on Tue, 18 Mar 2025 UTC via an ELECTRON launch vehicle from the Rocket Lab Launch Complex (RLLC). Payload-class satellites include a variety of spacecraft equipped with specific instruments for various scientific and technological missions. These include communications satellites like Starlink; space stations such as the ISS; scientific satellites like the Hubble; Earth observation satellites from companies like Planet Labs, Umbra, and HawkEye 360; GPS; miniature CubeSats for education and research; and military/defense satellites.

Loading next visibility...
Identifier
63304, 2025-056E
Orbit
SSO
Country
Flag of FRFR
Related business
Manufacturer
KINEIS
Mission
Operational Commercial Communications
Bus & Motor
CUBESAT 16U, Unknown motor
Mass
28 kg wet, 28 kg dry
Launch date (UTC)
2025-03-18 (6 months ago)
Launch vehicle
ELECTRON
Launch site
Rocket Lab Launch Complex (RLLC)
Object type
Payload
Rocket body
Debris
Shape & HBR
Box + 2 Pan + 1 Ant, 0.8 m
Radar Cross Section
0.229 m², Medium (>0.1 m² and < 1m²)

Expand to show TLE details & history
Last TLE update: 2 days ago

TLE from 2 days ago
0 KINEIS-4B
1 63304U 25056E   25257.08810672  .00001640  00000-0  26623-3 0  9990
2 63304  97.9923  21.3308 0003797  81.6029 278.5608 14.72475807 26498
Epoch: 2025-09-14T02:06Z
TLE epoch observation values (Epoch: 2025-09-14T02:06:52.42Z)
Latitude
-0.00012°
Longitude
-3.69974°
Altitude
655.787 km
Speed
7.53 km/s
True Right ascension
01h 25m 19s
True Declination
0° 00' 00"
Sunlit
Object was in full shadow at epoch
Visualization orbit readout
Latitude
Unknown
Longitude
Unknown
Altitude
Unknown
Speed
Unknown
Apparent Right ascension
Unknown
Apparent Declination
Unknown
Sunlit
N/A
Visualization observer readout
Local Sidereal Time
23:04:15
Azimuth
Unknown
Elevation
Unknown
Doppler factor
Unknown
Orbital elements
Apogee altitude
652.899 km
Perigee altitude
647.562 km
Semi-major axis
7,028.367 km
Eccentricity
0.00038
Inclination
97.9923°
RAAN
21.3308°
Arg. of periapsis
81.6029°
True anomaly
278.51777°
Mean anomaly
278.5608°
Eccentric anomaly
278.53929°
Mean motion
3.68351 °/min
Orbital period
97.73 mins
BSTAR
0.00026623
Loading maneuver chart data...
Computing Atmospheric mass density...
Loading historical data...
Loading historical data...
Loading historical data...
Loading historical data...
Loading historical data...
Loading historical data...
Loading historical data...

Documentation

Showing up to 5 results
|